GPS BIIR-14M

Last updated on Mon Sep 07 2026 00:02:48 GMT+0000 (Coordinated Universal Time)

1 28874U 05038A 26249.10497694 .00000039 00000+0 00000+0 0 9998 2 28874 54.8174 269.9050 0128706 297.3237 50.9398 2.00560021153456
UTC large
Height (km)
Speed (km/s)
/
Latitude / Longitude
Inclination (degrees)
Orbital Period (minutes)
Azimuth
Elevation
Range (km)
Doppler Factor

Next 0 passes for location: London (51.5072 / 0.1276)

No passes found over London.
GPS BIIR-14M